Temp
68 67 65 64 64 64 65 65 64 63 64 65 65 65 65 64 63 63 62 61 61 61 61 62 61 61 61 59 58 58 58 57 57 56 56 57 57 56 55 53 53 52 52 52 52 52 53 53 53 52 51 50 49 48 46 45 44 43 43 43 42 41 40 41 40 40 40 40 39
68 67 65 63 63 64 65 65 64 63 63 65 65 65 65 65 64 63 63 62 62 62 62 61 61 60 60 59 58 58 58 58 57 57 56 56 56 56 54 53 53 52 53 53 53 53 53 53 53 52 51 50 49 48 47 44 45 45 44 43 42 41 41 42 41 41 41 41 40
69 68 67 66 65 65 65 65 65 64 64 65 65 65 65 65 64 64 64 64 63 62 62 62 61 60 59 59 59 59 59 58 57 57 56 56 56 55 54 54 54 53 53 54 54 54 53 52 53 52 51 51 49 49 47 45 45 45 45 44 43 43 43 44 42 41 42 42 42
69 68 67 66 65 65 65 66 65 64 64 65 66 66 65 65 65 64 64 64 63 62 62 62 63 62 60 60 59 59 59 57 57 57 57 56 56 55 55 54 54 54 54 54 55 54 53 52 52 52 51 50 49 49 48 47 46 47 46 45 45 44 44 45 43 43 44 44 44
70 69 68 67 65 65 65 66 65 64 64 65 65 65 65 65 65 65 64 64 63 62 62 61 63 63 62 60 58 58 58 57 55 56 57 57 56 55 54 54 55 55 55 54 54 53 52 52 52 52 51 51 51 50 49 48 48 48 47 46 45 46 46 45 44 44 45 45 45
70 70 69 68 66 65 66 66 65 64 64 65 65 65 65 65 65 64 63 63 63 62 60 59 60 61 60 58 57 57 57 57 56 56 57 57 56 55 54 55 56 56 56 54 53 52 52 52 52 51 50 49 50 50 49 48 49 49 49 47 47 46 46 45 45 46 46 47 47
71 70 69 69 67 67 66 66 65 65 64 65 64 63 64 65 64 63 63 63 63 61 59 58 59 60 59 58 57 57 57 57 56 56 56 56 56 55 55 55 56 56 55 54 53 53 53 53 51 49 49 49 51 50 49 49 50 50 49 48 46 45 45 45 46 47 48 48 47
72 71 70 69 68 68 67 67 66 65 64 64 64 63 63 63 63 63 62 62 62 61 60 60 60 60 60 59 59 58 58 58 57 56 55 55 55 56 56 56 56 56 56 55 54 54 54 54 52 50 48 50 51 51 50 50 51 50 49 48 46 45 46 47 48 49 48 48 47
72 71 70 70 69 68 68 67 66 65 64 63 63 63 62 62 62 62 62 62 62 62 62 61 61 60 59 59 59 59 59 59 58 57 56 56 56 56 56 56 56 56 56 56 54 54 55 55 54 51 48 49 51 51 51 50 51 50 49 47 46 46 46 47 48 49 48 48 46
72 72 71 70 69 68 68 68 67 65 63 63 62 62 61 60 61 61 62 62 62 61 61 62 61 60 59 58 59 59 59 59 59 58 57 57 57 57 57 57 56 56 56 56 55 55 55 55 54 52 50 49 50 51 51 50 51 50 48 47 47 46 46 46 47 48 48 47 46
73 72 72 71 69 68 68 67 67 65 64 63 63 62 61 60 60 61 62 63 62 61 61 62 61 60 59 59 59 59 59 59 60 59 58 58 57 58 58 58 57 57 57 57 56 55 56 55 54 53 52 50 50 50 50 50 50 50 49 47 48 47 47 46 47 48 47 46 45
73 73 72 72 70 69 68 67 67 66 65 64 63 63 62 62 61 61 61 62 60 60 61 62 61 60 60 60 60 60 59 59 60 59 59 58 58 58 59 59 58 58 58 57 56 56 56 56 55 54 52 51 51 50 50 50 50 50 49 47 48 48 49 49 48 47 46 44 44
74 73 73 72 70 69 68 67 68 67 66 64 64 64 64 63 62 61 61 61 60 61 61 61 61 61 61 61 61 60 60 59 59 59 59 59 58 58 59 59 59 58 58 57 57 57 57 56 55 54 53 52 52 51 50 50 50 50 49 48 48 49 49 49 47 45 44 43 44
74 73 73 72 70 69 68 67 68 67 66 65 65 65 65 64 62 62 62 62 61 61 62 61 61 61 61 61 61 60 60 59 59 59 59 59 58 58 59 59 59 58 58 57 57 56 56 56 55 55 54 52 51 50 50 50 50 50 50 49 48 49 49 49 47 45 44 44 45
74 73 72 71 70 69 68 68 68 68 67 66 65 65 65 65 63 62 61 62 62 62 62 62 61 60 60 60 60 60 59 59 58 58 58 58 58 58 58 59 59 58 58 57 56 56 56 55 55 54 54 53 52 51 50 50 50 50 50 50 49 50 50 49 47 46 46 45 45
74 73 72 71 70 69 68 68 68 68 67 66 66 66 66 66 64 62 61 61 62 62 62 61 61 61 60 59 59 59 58 58 58 58 57 58 58 57 58 59 58 58 57 57 56 55 55 55 54 53 53 53 52 51 50 50 50 50 50 50 50 50 50 48 48 47 47 46 46
74 73 72 71 70 69 68 68 69 68 68 67 66 66 66 66 65 63 61 60 62 62 62 61 61 60 59 58 58 58 58 58 57 57 57 57 57 57 57 58 58 58 57 57 56 55 54 54 53 52 52 52 52 52 51 51 51 50 50 51 50 50 50 49 48 48 48 47 46
74 73 73 71 70 69 68 68 68 68 68 67 66 66 66 66 65 63 61 60 61 61 61 60 60 59 59 57 57 57 57 58 57 57 57 57 57 57 58 58 58 58 58 57 56 55 54 54 52 52 52 52 52 52 52 52 51 51 51 50 50 50 50 49 49 49 48 47 47
74 74 73 72 70 70 69 68 68 68 68 67 66 66 66 65 65 63 62 61 60 60 60 59 59 58 58 57 57 56 57 57 57 57 57 57 57 58 58 58 58 58 58 58 56 56 55 54 53 52 52 52 52 52 52 52 51 51 51 50 50 50 49 49 49 49 49 48 47
73 73 73 72 71 70 69 68 68 68 68 67 66 66 65 65 64 63 63 62 60 59 59 59 58 57 56 56 56 56 57 57 57 57 57 58 58 58 58 58 58 58 58 58 57 56 55 54 53 53 52 52 52 52 51 51 51 50 50 50 50 50 50 50 49 49 48 48 47
72 71 71 70 70 70 70 69 69 68 67 67 66 65 65 64 64 63 63 62 60 59 58 58 57 56 55 55 56 56 57 57 57 58 58 58 58 58 58 58 58 58 58 57 56 56 55 54 54 53 53 52 51 51 51 50 50 50 50 50 50 50 50 50 49 48 48 47 46
69 68 67 66 67 68 70 69 68 68 67 66 65 65 65 64 64 63 62 61 60 58 58 57 56 55 55 55 55 56 57 57 58 58 58 58 58 58 58 58 58 58 58 57 56 56 55 54 53 53 52 51 51 51 51 50 50 50 49 49 49 50 50 50 49 48 47 47 46
67 66 65 64 64 66 67 68 68 67 66 65 65 64 64 64 63 62 61 60 59 58 57 56 55 55 55 55 56 56 57 57 58 58 58 58 59 59 58 58 58 58 57 57 56 55 54 53 52 52 52 51 51 51 51 50 50 50 50 50 50 50 50 50 49 48 48 47 47
65 64 64 65 65 66 68 68 68 67 66 65 64 64 63 63 62 61 60 59 59 58 57 57 56 55 55 56 56 57 57 57 57 57 58 58 59 59 58 58 58 58 57 55 54 52 52 51 51 51 51 51 52 52 51 50 50 50 50 49 50 50 50 50 49 48 48 48 48
63 63 64 66 67 68 69 68 67 66 65 65 64 63 63 63 62 60 59 59 58 58 57 57 57 55 55 55 55 56 56 56 57 57 57 58 58 59 58 58 58 57 55 53 49 48 47 47 48 49 51 53 53 52 52 51 51 50 50 49 48 49 49 49 48 48 48 48 48
62 62 63 65 67 68 68 68 67 66 65 65 64 63 63 62 61 60 59 58 58 57 57 57 56 55 54 54 55 55 55 55 56 57 58 58 58 58 58 58 58 55 52 51 47 46 46 47 47 48 50 54 53 52 51 51 50 49 49 48 48 47 48 48 48 48 48 48 48
62 61 61 63 64 65 67 67 67 66 65 65 64 63 62 61 60 60 59 58 57 57 57 57 56 53 52 54 54 54 54 53 55 56 58 58 58 58 57 58 56 54 51 48 46 46 46 47 46 47 49 52 53 52 51 51 49 48 48 48 47 47 47 47 47 47 47 47 47
62 60 59 60 59 61 64 66 66 66 65 64 64 63 62 61 60 59 59 58 57 57 56 56 55 54 53 53 54 54 54 54 55 56 58 58 58 58 57 57 55 53 50 47 45 45 46 46 46 46 47 48 51 51 50 50 49 48 48 48 47 46 46 47 47 47 47 46 46
61 60 59 59 59 60 62 65 65 65 65 64 63 62 62 61 60 59 58 58 57 56 55 54 54 54 54 53 53 54 54 55 57 57 58 58 57 56 56 56 54 52 48 44 45 45 46 46 45 45 46 47 50 51 51 50 50 49 48 48 47 47 47 47 47 46 46 46 45
61 59 58 58 58 59 60 61 63 64 64 64 63 62 61 60 59 59 58 58 57 56 55 54 54 54 54 54 55 56 56 57 58 58 57 56 56 56 56 55 55 52 48 43 44 45 45 45 45 45 45 46 48 50 51 51 50 49 48 48 48 47 47 46 46 46 45 45 45
61 59 58 58 58 58 58 58 59 60 61 62 62 61 61 60 60 59 58 57 57 56 55 55 55 55 55 56 57 57 57 58 58 57 57 56 54 55 55 55 56 53 48 42 44 45 45 45 45 45 44 45 47 49 51 50 50 49 49 48 48 47 47 46 46 45 45 45 44
61 60 59 59 59 58 58 57 57 57 57 58 60 60 60 60 60 59 59 57 57 56 56 55 55 56 56 57 57 57 57 57 57 56 56 56 55 55 56 56 56 52 47 41 43 44 44 44 44 44 44 43 46 48 50 50 49 49 48 48 47 47 46 47 46 46 45 44 44
60 60 60 60 60 59 58 57 56 55 55 56 57 59 59 59 59 59 59 59 58 57 57 56 56 56 56 56 55 55 55 55 55 54 54 54 54 55 55 55 55 51 46 41 43 43 44 44 44 43 43 42 46 48 49 49 49 48 47 47 47 46 46 46 46 46 45 45 44
61 60 60 60 59 58 57 56 55 54 54 55 56 57 58 58 58 59 59 59 59 58 58 58 57 57 56 55 55 54 53 53 54 54 53 53 53 54 54 55 56 51 44 41 42 43 43 43 43 43 42 42 45 48 49 47 48 47 46 46 46 46 45 46 46 46 46 45 43
61 60 60 60 59 58 57 56 55 54 54 54 55 56 56 56 56 57 57 57 57 57 57 57 56 55 55 53 53 52 52 51 52 52 51 52 52 52 52 53 54 49 43 41 42 43 43 43 43 42 42 42 46 47 48 47 46 46 45 45 45 45 45 45 45 45 44 43 42
60 60 59 59 58 57 56 56 55 55 54 54 54 54 55 55 56 56 57 56 56 56 56 55 54 53 52 51 50 49 49 50 50 49 49 49 50 51 51 51 52 47 42 41 42 42 43 43 42 42 42 44 47 47 47 46 46 45 45 45 45 44 44 43 43 43 42 41 41
60 59 59 58 57 57 56 56 56 55 55 55 54 55 55 55 56 57 57 56 56 55 54 53 52 52 51 51 50 49 48 48 48 48 47 47 49 49 49 48 48 45 41 41 42 42 42 42 42 42 43 45 47 47 46 45 45 44 44 44 43 43 42 41 41 40 40 39 39
60 59 59 58 58 57 57 57 56 56 56 56 56 56 56 56 57 57 56 55 55 54 53 52 51 51 51 50 50 49 47 47 47 47 47 47 47 47 47 45 45 43 41 40 41 42 42 42 42 42 43 46 47 47 46 45 44 43 43 42 41 41 40 39 39 38 38 38 38
60 60 59 59 58 58 58 57 57 57 57 57 56 56 56 55 56 55 54 54 54 54 53 51 51 50 50 49 49 47 45 44 45 46 46 46 46 46 45 45 44 42 40 40 41 41 42 42 42 42 43 45 46 46 46 45 43 42 41 40 40 39 38 37 37 37 38 37 38
60 60 60 60 59 59 58 58 58 58 57 57 56 56 55 54 53 53 52 52 52 52 52 51 50 49 49 47 48 46 44 43 43 44 45 45 45 44 44 44 43 41 40 39 40 41 42 42 42 42 43 45 46 46 46 45 43 41 40 39 39 39 37 36 36 37 37 37 37
59 59 59 59 58 58 58 58 58 57 57 56 55 54 52 51 51 50 50 50 50 51 51 51 49 48 47 47 47 46 45 43 42 43 43 44 44 44 44 43 43 41 40 39 40 41 41 42 42 42 42 44 45 46 46 45 43 41 40 38 38 38 37 36 36 36 36 35 35
MSLP
1013.84 1014.04 1014.28 1014.44 1014.56 1014.72 1014.84 1014.88 1015.00 1015.12 1015.28 1015.40 1015.56 1015.72 1015.88 1016.12 1016.28 1016.44 1016.56 1016.76 1016.84 1016.96 1017.00 1017.08 1017.12 1017.28 1017.44 1017.64 1017.80 1017.92 1018.04 1018.16 1018.32 1018.48 1018.68 1018.84 1018.96 1019.12 1019.28 1019.48 1019.60 1019.72 1019.84 1020.00 1020.12 1020.28 1020.48 1020.60 1020.84 1021.04 1021.24 1021.40 1021.60 1021.84 1022.00 1022.12 1022.28 1022.48 1022.68 1022.84 1023.08 1023.28 1023.40 1023.56 1023.72 1023.84 1023.88 1023.96 1024.04
1013.56 1013.72 1013.96 1014.12 1014.28 1014.44 1014.56 1014.72 1014.84 1014.96 1015.08 1015.12 1015.28 1015.40 1015.56 1015.76 1015.96 1016.12 1016.28 1016.44 1016.52 1016.60 1016.72 1016.84 1017.00 1017.12 1017.28 1017.40 1017.56 1017.72 1017.84 1018.00 1018.12 1018.28 1018.48 1018.60 1018.72 1018.88 1019.08 1019.28 1019.44 1019.56 1019.68 1019.84 1020.00 1020.20 1020.36 1020.56 1020.72 1020.96 1021.16 1021.32 1021.52 1021.72 1021.92 1022.04 1022.12 1022.28 1022.52 1022.76 1023.00 1023.16 1023.32 1023.44 1023.56 1023.60 1023.72 1023.80 1023.88
1013.28 1013.44 1013.68 1013.84 1014.00 1014.20 1014.32 1014.44 1014.56 1014.72 1014.84 1014.92 1015.00 1015.12 1015.28 1015.44 1015.56 1015.76 1015.92 1016.00 1016.16 1016.36 1016.56 1016.68 1016.80 1016.88 1017.00 1017.16 1017.32 1017.48 1017.60 1017.72 1017.92 1018.08 1018.24 1018.32 1018.48 1018.68 1018.88 1019.08 1019.24 1019.40 1019.52 1019.64 1019.76 1019.96 1020.12 1020.32 1020.52 1020.76 1021.00 1021.20 1021.36 1021.56 1021.76 1021.92 1022.00 1022.12 1022.28 1022.56 1022.80 1023.00 1023.16 1023.32 1023.40 1023.44 1023.56 1023.64 1023.76
1012.92 1013.12 1013.36 1013.56 1013.72 1013.80 1013.92 1014.00 1014.16 1014.36 1014.52 1014.64 1014.76 1014.92 1015.08 1015.16 1015.28 1015.40 1015.56 1015.72 1015.96 1016.16 1016.32 1016.40 1016.44 1016.60 1016.80 1016.88 1017.08 1017.24 1017.36 1017.48 1017.68 1017.84 1018.00 1018.12 1018.28 1018.44 1018.64 1018.80 1019.00 1019.16 1019.28 1019.40 1019.56 1019.72 1019.88 1020.12 1020.36 1020.56 1020.80 1021.00 1021.20 1021.36 1021.56 1021.72 1021.84 1021.96 1022.08 1022.24 1022.44 1022.68 1022.92 1023.04 1023.20 1023.28 1023.40 1023.56 1023.60
1012.60 1012.80 1012.96 1013.12 1013.28 1013.40 1013.52 1013.60 1013.80 1014.00 1014.20 1014.36 1014.56 1014.72 1014.84 1014.92 1015.04 1015.20 1015.40 1015.56 1015.72 1015.84 1015.92 1016.04 1016.16 1016.32 1016.52 1016.68 1016.88 1017.04 1017.20 1017.40 1017.56 1017.72 1017.84 1018.00 1018.12 1018.28 1018.44 1018.56 1018.72 1018.84 1019.00 1019.16 1019.32 1019.56 1019.76 1020.00 1020.20 1020.44 1020.64 1020.84 1021.00 1021.12 1021.28 1021.48 1021.68 1021.80 1021.88 1022.00 1022.12 1022.28 1022.56 1022.84 1023.04 1023.20 1023.28 1023.40 1023.44
1012.28 1012.44 1012.64 1012.84 1013.00 1013.16 1013.28 1013.40 1013.56 1013.72 1013.96 1014.12 1014.28 1014.44 1014.56 1014.64 1014.76 1014.92 1015.08 1015.24 1015.28 1015.40 1015.64 1015.84 1016.00 1016.12 1016.28 1016.56 1016.76 1016.92 1017.12 1017.28 1017.44 1017.60 1017.72 1017.88 1018.00 1018.12 1018.28 1018.44 1018.48 1018.60 1018.80 1019.00 1019.24 1019.40 1019.60 1019.84 1020.12 1020.36 1020.56 1020.72 1020.84 1020.96 1021.12 1021.28 1021.52 1021.68 1021.84 1022.00 1022.04 1022.16 1022.40 1022.72 1022.92 1023.08 1023.20 1023.32 1023.36
1011.92 1012.12 1012.36 1012.56 1012.76 1012.96 1013.08 1013.16 1013.36 1013.56 1013.72 1013.92 1014.04 1014.12 1014.16 1014.28 1014.40 1014.52 1014.64 1014.76 1014.92 1015.16 1015.44 1015.72 1015.84 1016.00 1016.16 1016.40 1016.64 1016.84 1017.00 1017.16 1017.36 1017.52 1017.64 1017.80 1017.92 1018.08 1018.24 1018.32 1018.44 1018.56 1018.76 1019.00 1019.12 1019.32 1019.48 1019.72 1020.00 1020.24 1020.48 1020.64 1020.76 1020.92 1021.04 1021.24 1021.40 1021.56 1021.72 1021.84 1021.96 1022.08 1022.28 1022.56 1022.72 1022.92 1023.08 1023.24 1023.28
1011.60 1011.80 1012.00 1012.20 1012.44 1012.64 1012.84 1012.96 1013.20 1013.40 1013.60 1013.68 1013.72 1013.76 1013.80 1013.88 1014.00 1014.16 1014.32 1014.56 1014.76 1015.00 1015.24 1015.44 1015.60 1015.72 1015.92 1016.12 1016.40 1016.56 1016.76 1016.96 1017.16 1017.40 1017.56 1017.72 1017.84 1018.00 1018.12 1018.32 1018.48 1018.64 1018.76 1018.92 1019.08 1019.24 1019.36 1019.56 1019.84 1020.12 1020.28 1020.48 1020.68 1020.84 1021.00 1021.12 1021.28 1021.44 1021.64 1021.80 1021.88 1022.00 1022.12 1022.32 1022.56 1022.76 1022.92 1023.04 1023.20
1011.36 1011.48 1011.68 1011.92 1012.12 1012.32 1012.56 1012.72 1012.92 1013.12 1013.32 1013.40 1013.40 1013.40 1013.52 1013.64 1013.76 1013.92 1014.12 1014.36 1014.52 1014.72 1014.96 1015.20 1015.40 1015.56 1015.72 1015.92 1016.12 1016.36 1016.56 1016.72 1016.96 1017.16 1017.40 1017.56 1017.72 1017.84 1018.04 1018.28 1018.48 1018.64 1018.72 1018.84 1019.00 1019.12 1019.28 1019.40 1019.64 1019.88 1020.12 1020.28 1020.44 1020.68 1020.84 1021.00 1021.12 1021.36 1021.56 1021.72 1021.84 1021.96 1022.04 1022.16 1022.40 1022.56 1022.76 1022.92 1023.12
1011.00 1011.12 1011.36 1011.60 1011.84 1012.04 1012.28 1012.48 1012.68 1012.84 1013.00 1013.12 1013.16 1013.28 1013.40 1013.48 1013.60 1013.72 1013.88 1014.04 1014.28 1014.52 1014.72 1014.92 1015.16 1015.40 1015.64 1015.80 1015.96 1016.12 1016.36 1016.56 1016.72 1016.92 1017.12 1017.28 1017.48 1017.60 1017.76 1017.96 1018.16 1018.40 1018.56 1018.72 1018.88 1019.00 1019.12 1019.28 1019.48 1019.68 1019.88 1020.04 1020.24 1020.44 1020.64 1020.84 1021.00 1021.20 1021.40 1021.56 1021.72 1021.84 1021.96 1022.08 1022.20 1022.40 1022.60 1022.76 1022.92
1010.52 1010.72 1010.92 1011.20 1011.44 1011.72 1012.00 1012.28 1012.44 1012.64 1012.80 1012.92 1013.04 1013.12 1013.28 1013.40 1013.52 1013.60 1013.72 1013.92 1014.20 1014.44 1014.52 1014.64 1014.88 1015.16 1015.40 1015.56 1015.72 1015.88 1016.08 1016.28 1016.40 1016.56 1016.84 1017.04 1017.20 1017.32 1017.44 1017.60 1017.80 1018.00 1018.28 1018.52 1018.72 1018.84 1019.00 1019.12 1019.32 1019.48 1019.72 1019.88 1020.04 1020.28 1020.52 1020.72 1020.84 1021.04 1021.24 1021.40 1021.56 1021.68 1021.84 1022.00 1022.12 1022.28 1022.44 1022.64 1022.84
1010.12 1010.28 1010.48 1010.76 1011.04 1011.40 1011.72 1012.00 1012.16 1012.40 1012.56 1012.72 1012.84 1013.00 1013.12 1013.28 1013.40 1013.52 1013.72 1013.92 1014.12 1014.20 1014.28 1014.44 1014.64 1014.88 1015.12 1015.28 1015.40 1015.56 1015.76 1015.92 1016.08 1016.28 1016.52 1016.76 1016.92 1017.08 1017.24 1017.36 1017.56 1017.72 1017.96 1018.20 1018.44 1018.68 1018.80 1018.92 1019.08 1019.28 1019.48 1019.72 1019.84 1020.04 1020.28 1020.56 1020.72 1020.84 1021.04 1021.28 1021.40 1021.56 1021.72 1021.84 1022.00 1022.12 1022.28 1022.48 1022.72
1009.72 1009.96 1010.20 1010.44 1010.72 1011.12 1011.40 1011.68 1011.84 1012.08 1012.28 1012.44 1012.60 1012.76 1012.92 1013.12 1013.28 1013.48 1013.68 1013.80 1013.88 1014.00 1014.12 1014.28 1014.48 1014.64 1014.80 1014.96 1015.12 1015.36 1015.52 1015.72 1015.88 1016.08 1016.28 1016.48 1016.72 1016.92 1017.08 1017.20 1017.36 1017.56 1017.72 1017.96 1018.16 1018.40 1018.52 1018.64 1018.80 1019.00 1019.24 1019.44 1019.68 1019.84 1020.00 1020.28 1020.44 1020.64 1020.84 1021.12 1021.28 1021.40 1021.52 1021.68 1021.84 1022.04 1022.20 1022.40 1022.56
1009.44 1009.72 1009.92 1010.16 1010.48 1010.84 1011.12 1011.36 1011.56 1011.72 1011.92 1012.12 1012.32 1012.48 1012.68 1012.92 1013.16 1013.40 1013.52 1013.60 1013.72 1013.84 1014.00 1014.16 1014.36 1014.48 1014.56 1014.72 1014.88 1015.12 1015.32 1015.52 1015.72 1015.92 1016.08 1016.28 1016.48 1016.72 1016.88 1017.00 1017.16 1017.36 1017.52 1017.72 1017.92 1018.12 1018.24 1018.40 1018.56 1018.72 1018.96 1019.20 1019.44 1019.64 1019.80 1020.00 1020.16 1020.36 1020.56 1020.84 1021.04 1021.16 1021.32 1021.52 1021.72 1021.92 1022.12 1022.28 1022.44
1009.28 1009.44 1009.68 1009.96 1010.28 1010.56 1010.84 1011.04 1011.20 1011.40 1011.56 1011.84 1012.00 1012.20 1012.44 1012.68 1012.92 1013.16 1013.36 1013.40 1013.56 1013.72 1013.84 1014.08 1014.24 1014.36 1014.48 1014.60 1014.76 1014.96 1015.20 1015.40 1015.56 1015.76 1015.92 1016.08 1016.28 1016.48 1016.64 1016.76 1016.96 1017.12 1017.28 1017.48 1017.68 1017.84 1018.00 1018.16 1018.36 1018.56 1018.80 1019.00 1019.24 1019.44 1019.68 1019.84 1020.00 1020.12 1020.36 1020.56 1020.76 1020.96 1021.12 1021.36 1021.56 1021.80 1022.00 1022.16 1022.36
1009.08 1009.28 1009.48 1009.76 1010.04 1010.28 1010.52 1010.72 1010.88 1011.08 1011.28 1011.44 1011.68 1011.92 1012.16 1012.36 1012.60 1012.88 1013.12 1013.28 1013.44 1013.64 1013.84 1013.96 1014.12 1014.28 1014.44 1014.56 1014.72 1014.92 1015.12 1015.32 1015.48 1015.64 1015.76 1015.88 1016.04 1016.24 1016.40 1016.56 1016.72 1016.88 1017.08 1017.28 1017.52 1017.72 1017.84 1018.04 1018.24 1018.44 1018.68 1018.88 1019.08 1019.28 1019.52 1019.72 1019.88 1020.08 1020.28 1020.44 1020.56 1020.76 1021.00 1021.16 1021.40 1021.60 1021.80 1022.00 1022.24
1008.84 1009.04 1009.28 1009.52 1009.80 1010.04 1010.24 1010.44 1010.60 1010.76 1010.96 1011.12 1011.36 1011.60 1011.84 1012.00 1012.28 1012.56 1012.84 1013.04 1013.24 1013.48 1013.68 1013.84 1014.00 1014.20 1014.44 1014.56 1014.68 1014.84 1015.04 1015.16 1015.32 1015.44 1015.56 1015.68 1015.80 1016.00 1016.16 1016.36 1016.52 1016.72 1016.92 1017.12 1017.36 1017.56 1017.80 1018.00 1018.16 1018.36 1018.56 1018.76 1018.96 1019.16 1019.36 1019.56 1019.72 1019.96 1020.12 1020.28 1020.44 1020.64 1020.80 1021.00 1021.16 1021.40 1021.64 1021.88 1022.08
1008.72 1008.88 1009.12 1009.32 1009.56 1009.76 1010.00 1010.20 1010.36 1010.44 1010.60 1010.76 1011.04 1011.28 1011.44 1011.68 1011.96 1012.28 1012.56 1012.76 1013.00 1013.24 1013.44 1013.68 1013.84 1014.08 1014.28 1014.44 1014.52 1014.68 1014.80 1014.92 1015.04 1015.12 1015.28 1015.40 1015.60 1015.80 1016.00 1016.24 1016.48 1016.68 1016.84 1017.00 1017.20 1017.44 1017.68 1017.88 1018.12 1018.32 1018.52 1018.72 1018.84 1019.04 1019.28 1019.44 1019.60 1019.80 1019.96 1020.12 1020.28 1020.48 1020.64 1020.84 1021.00 1021.24 1021.52 1021.80 1021.92
1008.48 1008.68 1008.88 1009.12 1009.32 1009.56 1009.84 1010.00 1010.08 1010.12 1010.20 1010.44 1010.72 1011.00 1011.24 1011.40 1011.64 1011.96 1012.28 1012.56 1012.76 1012.96 1013.16 1013.40 1013.60 1013.84 1014.00 1014.16 1014.28 1014.44 1014.56 1014.64 1014.76 1014.92 1015.08 1015.28 1015.56 1015.80 1016.00 1016.28 1016.56 1016.72 1016.84 1017.00 1017.12 1017.32 1017.56 1017.84 1018.04 1018.28 1018.44 1018.64 1018.80 1019.00 1019.20 1019.40 1019.56 1019.68 1019.84 1020.00 1020.20 1020.36 1020.52 1020.68 1020.88 1021.12 1021.36 1021.56 1021.72
1007.92 1008.28 1008.64 1008.88 1009.20 1009.56 1009.72 1009.72 1009.72 1009.76 1010.00 1010.24 1010.52 1010.80 1011.04 1011.24 1011.44 1011.72 1012.00 1012.28 1012.52 1012.72 1012.92 1013.12 1013.32 1013.56 1013.84 1014.00 1014.12 1014.28 1014.40 1014.48 1014.68 1014.88 1015.12 1015.40 1015.64 1015.88 1016.12 1016.36 1016.56 1016.76 1016.92 1017.08 1017.20 1017.40 1017.56 1017.76 1017.96 1018.12 1018.32 1018.52 1018.72 1019.00 1019.20 1019.40 1019.52 1019.64 1019.80 1019.96 1020.12 1020.28 1020.44 1020.60 1020.76 1021.00 1021.16 1021.32 1021.56
1007.32 1007.80 1008.44 1009.00 1009.44 1009.72 1009.72 1009.48 1009.44 1009.64 1009.92 1010.12 1010.40 1010.60 1010.84 1011.08 1011.32 1011.52 1011.72 1011.96 1012.28 1012.56 1012.80 1012.96 1013.16 1013.40 1013.68 1013.92 1014.08 1014.24 1014.44 1014.56 1014.84 1015.04 1015.28 1015.56 1015.80 1016.00 1016.12 1016.32 1016.52 1016.72 1016.92 1017.12 1017.32 1017.44 1017.56 1017.72 1017.84 1018.00 1018.20 1018.44 1018.64 1018.84 1019.12 1019.32 1019.52 1019.60 1019.72 1019.84 1020.04 1020.20 1020.36 1020.52 1020.72 1020.84 1021.04 1021.28 1021.52
1007.00 1007.48 1008.28 1009.20 1009.88 1010.00 1009.72 1009.40 1009.44 1009.68 1009.92 1010.08 1010.28 1010.48 1010.72 1011.00 1011.16 1011.36 1011.56 1011.84 1012.16 1012.48 1012.72 1012.84 1013.00 1013.28 1013.56 1013.88 1014.12 1014.44 1014.68 1014.88 1015.08 1015.24 1015.44 1015.72 1015.92 1016.04 1016.16 1016.32 1016.48 1016.68 1016.84 1017.00 1017.20 1017.40 1017.56 1017.60 1017.76 1017.96 1018.12 1018.40 1018.56 1018.76 1019.00 1019.20 1019.40 1019.56 1019.64 1019.72 1019.88 1020.04 1020.24 1020.44 1020.60 1020.80 1021.00 1021.24 1021.40
1006.76 1007.28 1008.04 1008.96 1009.80 1009.92 1009.64 1009.40 1009.48 1009.68 1009.88 1010.04 1010.24 1010.44 1010.68 1010.84 1011.08 1011.28 1011.56 1011.84 1012.12 1012.40 1012.60 1012.76 1013.00 1013.28 1013.60 1013.96 1014.36 1014.72 1014.96 1015.12 1015.28 1015.40 1015.60 1015.84 1016.00 1016.08 1016.20 1016.28 1016.44 1016.56 1016.72 1016.84 1017.00 1017.20 1017.40 1017.56 1017.76 1017.96 1018.16 1018.44 1018.56 1018.72 1018.92 1019.12 1019.28 1019.36 1019.48 1019.60 1019.76 1019.96 1020.12 1020.36 1020.56 1020.80 1021.00 1021.16 1021.32
1006.56 1007.12 1007.76 1008.40 1008.96 1009.16 1009.16 1009.20 1009.36 1009.56 1009.76 1009.96 1010.16 1010.44 1010.64 1010.84 1011.08 1011.36 1011.64 1011.84 1012.04 1012.24 1012.44 1012.72 1013.04 1013.40 1013.72 1014.04 1014.48 1014.84 1015.12 1015.28 1015.40 1015.56 1015.72 1015.84 1015.96 1016.04 1016.16 1016.28 1016.40 1016.48 1016.56 1016.72 1016.84 1017.00 1017.20 1017.48 1017.76 1018.00 1018.20 1018.40 1018.52 1018.68 1018.84 1019.08 1019.16 1019.24 1019.36 1019.52 1019.72 1019.96 1020.16 1020.36 1020.56 1020.72 1020.88 1021.04 1021.16
1006.48 1007.04 1007.56 1007.92 1008.28 1008.52 1008.72 1008.88 1009.12 1009.36 1009.56 1009.84 1010.12 1010.40 1010.64 1010.84 1011.12 1011.40 1011.72 1011.88 1012.04 1012.28 1012.56 1012.88 1013.28 1013.60 1013.88 1014.16 1014.52 1014.84 1015.16 1015.40 1015.56 1015.72 1015.84 1015.84 1015.84 1015.92 1016.04 1016.20 1016.32 1016.40 1016.44 1016.56 1016.72 1016.84 1017.00 1017.28 1017.60 1017.84 1018.00 1018.16 1018.28 1018.48 1018.72 1018.96 1019.04 1019.12 1019.28 1019.48 1019.72 1020.00 1020.16 1020.36 1020.52 1020.64 1020.76 1020.88 1021.00
1006.64 1007.12 1007.56 1007.84 1008.08 1008.28 1008.44 1008.64 1008.84 1009.12 1009.44 1009.72 1010.00 1010.28 1010.56 1010.84 1011.12 1011.40 1011.68 1011.84 1012.08 1012.44 1012.96 1013.40 1013.72 1013.96 1014.08 1014.28 1014.56 1014.96 1015.36 1015.60 1015.76 1015.84 1015.80 1015.72 1015.72 1015.76 1015.88 1016.00 1016.12 1016.20 1016.28 1016.40 1016.48 1016.64 1016.84 1017.04 1017.28 1017.52 1017.72 1017.92 1018.12 1018.36 1018.56 1018.76 1018.88 1019.04 1019.24 1019.48 1019.72 1019.96 1020.12 1020.28 1020.44 1020.48 1020.60 1020.72 1020.84
1006.72 1007.20 1007.56 1007.84 1008.04 1008.16 1008.28 1008.40 1008.64 1009.00 1009.32 1009.56 1009.88 1010.12 1010.40 1010.68 1011.00 1011.24 1011.52 1011.84 1012.16 1012.68 1013.24 1013.76 1014.12 1014.28 1014.36 1014.44 1014.72 1015.08 1015.40 1015.56 1015.60 1015.56 1015.44 1015.36 1015.40 1015.48 1015.60 1015.72 1015.80 1015.88 1016.00 1016.12 1016.28 1016.48 1016.68 1016.88 1017.12 1017.36 1017.56 1017.72 1017.92 1018.12 1018.40 1018.56 1018.80 1019.04 1019.28 1019.48 1019.68 1019.84 1020.00 1020.12 1020.24 1020.32 1020.44 1020.56 1020.72
1006.56 1007.12 1007.56 1007.84 1008.08 1008.16 1008.20 1008.28 1008.48 1008.80 1009.08 1009.32 1009.56 1009.84 1010.12 1010.44 1010.72 1011.00 1011.32 1011.72 1012.24 1012.80 1013.36 1013.84 1014.16 1014.36 1014.48 1014.60 1014.80 1014.96 1015.08 1015.12 1015.08 1014.96 1014.84 1014.84 1014.88 1015.00 1015.16 1015.32 1015.40 1015.56 1015.72 1015.84 1016.12 1016.36 1016.60 1016.84 1017.04 1017.24 1017.40 1017.60 1017.84 1018.00 1018.28 1018.52 1018.76 1019.00 1019.20 1019.40 1019.56 1019.72 1019.84 1019.96 1020.04 1020.16 1020.32 1020.48 1020.56
1006.28 1006.96 1007.48 1007.76 1008.08 1008.16 1008.12 1008.12 1008.28 1008.56 1008.80 1009.08 1009.28 1009.56 1009.88 1010.20 1010.48 1010.80 1011.20 1011.72 1012.28 1012.84 1013.32 1013.72 1014.04 1014.28 1014.40 1014.48 1014.48 1014.48 1014.44 1014.44 1014.36 1014.28 1014.28 1014.36 1014.48 1014.60 1014.80 1014.96 1015.12 1015.28 1015.44 1015.68 1015.88 1016.12 1016.40 1016.60 1016.84 1017.04 1017.28 1017.48 1017.72 1017.96 1018.16 1018.44 1018.68 1018.84 1019.04 1019.20 1019.36 1019.56 1019.68 1019.80 1019.92 1020.04 1020.24 1020.36 1020.44
1006.00 1006.72 1007.28 1007.56 1007.84 1008.00 1008.00 1008.00 1008.08 1008.28 1008.56 1008.84 1009.12 1009.40 1009.72 1010.00 1010.24 1010.52 1010.96 1011.56 1012.20 1012.76 1013.12 1013.44 1013.72 1013.88 1013.88 1013.76 1013.64 1013.56 1013.56 1013.56 1013.56 1013.64 1013.80 1014.00 1014.20 1014.36 1014.56 1014.72 1014.88 1015.08 1015.28 1015.48 1015.64 1015.84 1016.16 1016.44 1016.72 1016.92 1017.12 1017.40 1017.68 1017.88 1018.08 1018.28 1018.44 1018.64 1018.80 1019.00 1019.12 1019.28 1019.44 1019.64 1019.84 1019.96 1020.08 1020.16 1020.28
1005.72 1006.44 1007.00 1007.24 1007.44 1007.64 1007.80 1007.92 1008.08 1008.28 1008.48 1008.72 1009.00 1009.24 1009.48 1009.72 1009.92 1010.12 1010.48 1011.00 1011.72 1012.36 1012.84 1013.12 1013.28 1013.20 1012.96 1012.72 1012.72 1012.76 1012.88 1012.96 1013.08 1013.20 1013.40 1013.60 1013.88 1014.12 1014.28 1014.48 1014.64 1014.84 1015.08 1015.36 1015.48 1015.72 1016.00 1016.28 1016.52 1016.72 1017.00 1017.28 1017.56 1017.72 1017.88 1018.04 1018.24 1018.40 1018.56 1018.76 1018.92 1019.08 1019.28 1019.44 1019.64 1019.76 1019.88 1020.00 1020.12
1005.48 1006.04 1006.56 1006.84 1007.04 1007.28 1007.56 1007.84 1008.12 1008.40 1008.60 1008.80 1008.96 1009.12 1009.32 1009.48 1009.64 1009.84 1010.12 1010.44 1011.04 1011.72 1012.32 1012.64 1012.60 1012.44 1012.28 1012.24 1012.32 1012.44 1012.60 1012.80 1012.92 1013.04 1013.16 1013.40 1013.64 1013.84 1014.08 1014.28 1014.44 1014.64 1014.92 1015.28 1015.40 1015.64 1015.88 1016.12 1016.36 1016.56 1016.84 1017.08 1017.32 1017.52 1017.72 1017.84 1018.04 1018.24 1018.44 1018.56 1018.72 1018.92 1019.12 1019.28 1019.40 1019.56 1019.64 1019.76 1019.84
1005.28 1005.64 1006.00 1006.44 1006.72 1007.04 1007.40 1007.72 1008.04 1008.36 1008.60 1008.84 1009.00 1009.12 1009.28 1009.44 1009.60 1009.80 1010.00 1010.20 1010.52 1011.00 1011.40 1011.64 1011.72 1011.72 1011.80 1012.00 1012.16 1012.40 1012.56 1012.72 1012.84 1012.92 1013.08 1013.24 1013.48 1013.72 1013.96 1014.16 1014.32 1014.52 1014.80 1015.12 1015.36 1015.56 1015.80 1016.00 1016.24 1016.44 1016.72 1016.96 1017.16 1017.36 1017.52 1017.72 1017.84 1018.08 1018.28 1018.44 1018.56 1018.72 1018.92 1019.08 1019.16 1019.28 1019.40 1019.48 1019.56
1005.24 1005.48 1005.80 1006.16 1006.56 1007.00 1007.36 1007.68 1007.96 1008.28 1008.56 1008.84 1009.00 1009.16 1009.32 1009.52 1009.72 1009.92 1010.12 1010.20 1010.28 1010.40 1010.56 1010.72 1010.96 1011.20 1011.44 1011.72 1011.96 1012.16 1012.36 1012.52 1012.64 1012.76 1012.92 1013.12 1013.40 1013.64 1013.88 1014.08 1014.20 1014.44 1014.72 1015.00 1015.24 1015.44 1015.64 1015.84 1016.08 1016.32 1016.56 1016.84 1017.00 1017.20 1017.36 1017.56 1017.72 1017.96 1018.12 1018.28 1018.44 1018.60 1018.72 1018.84 1018.96 1019.00 1019.12 1019.20 1019.32
1005.12 1005.40 1005.72 1006.08 1006.60 1007.08 1007.40 1007.64 1007.88 1008.20 1008.56 1008.84 1009.04 1009.28 1009.48 1009.64 1009.92 1010.20 1010.36 1010.36 1010.28 1010.16 1010.24 1010.44 1010.68 1010.96 1011.28 1011.56 1011.76 1011.96 1012.12 1012.32 1012.52 1012.72 1012.88 1013.12 1013.36 1013.60 1013.80 1013.96 1014.12 1014.36 1014.64 1014.88 1015.12 1015.28 1015.52 1015.72 1015.92 1016.16 1016.44 1016.72 1016.88 1017.04 1017.24 1017.44 1017.64 1017.84 1018.00 1018.16 1018.36 1018.48 1018.60 1018.72 1018.80 1018.84 1018.96 1019.04 1019.16
1005.04 1005.28 1005.60 1006.00 1006.56 1007.12 1007.40 1007.60 1007.84 1008.16 1008.56 1008.96 1009.12 1009.32 1009.56 1009.76 1010.00 1010.16 1010.28 1010.24 1010.12 1010.12 1010.16 1010.32 1010.56 1010.88 1011.16 1011.40 1011.60 1011.80 1012.00 1012.20 1012.44 1012.72 1012.88 1013.12 1013.36 1013.56 1013.80 1013.96 1014.08 1014.32 1014.60 1014.80 1014.96 1015.12 1015.36 1015.56 1015.76 1016.04 1016.32 1016.56 1016.72 1016.92 1017.12 1017.32 1017.56 1017.76 1017.96 1018.12 1018.28 1018.44 1018.52 1018.64 1018.72 1018.80 1018.84 1018.96 1019.04
1004.96 1005.16 1005.48 1005.92 1006.52 1007.00 1007.32 1007.56 1007.80 1008.12 1008.56 1008.92 1009.08 1009.24 1009.40 1009.60 1009.68 1009.64 1009.68 1009.76 1009.92 1010.04 1010.12 1010.36 1010.56 1010.80 1011.00 1011.24 1011.44 1011.68 1011.88 1012.12 1012.40 1012.68 1012.92 1013.12 1013.32 1013.56 1013.80 1014.00 1014.16 1014.40 1014.56 1014.72 1014.88 1015.04 1015.24 1015.40 1015.64 1015.88 1016.16 1016.40 1016.56 1016.84 1017.08 1017.32 1017.56 1017.76 1017.96 1018.12 1018.24 1018.32 1018.44 1018.56 1018.68 1018.76 1018.84 1018.96 1019.00
1004.88 1005.12 1005.40 1005.88 1006.44 1006.88 1007.24 1007.48 1007.76 1008.08 1008.40 1008.64 1008.84 1008.96 1009.00 1009.04 1009.08 1009.12 1009.28 1009.56 1009.84 1010.04 1010.28 1010.44 1010.64 1010.80 1010.96 1011.12 1011.40 1011.68 1011.92 1012.12 1012.36 1012.64 1012.92 1013.12 1013.32 1013.52 1013.76 1014.04 1014.20 1014.40 1014.56 1014.68 1014.80 1014.96 1015.12 1015.28 1015.52 1015.76 1016.00 1016.16 1016.44 1016.72 1017.00 1017.28 1017.56 1017.76 1017.92 1018.08 1018.20 1018.36 1018.48 1018.60 1018.76 1018.88 1019.00 1019.04 1019.04
1004.84 1005.12 1005.52 1005.92 1006.36 1006.80 1007.20 1007.48 1007.64 1007.80 1007.96 1008.12 1008.36 1008.52 1008.68 1008.80 1008.92 1009.12 1009.36 1009.56 1009.76 1010.00 1010.28 1010.52 1010.72 1010.84 1011.04 1011.28 1011.56 1011.84 1012.08 1012.20 1012.36 1012.56 1012.84 1013.08 1013.28 1013.44 1013.72 1014.00 1014.20 1014.36 1014.52 1014.60 1014.72 1014.84 1015.04 1015.24 1015.40 1015.60 1015.76 1016.00 1016.24 1016.56 1016.88 1017.20 1017.48 1017.68 1017.84 1018.00 1018.20 1018.40 1018.56 1018.76 1018.88 1019.00 1019.08 1019.04 1019.00
1004.84 1005.12 1005.52 1005.96 1006.28 1006.64 1006.96 1007.24 1007.36 1007.40 1007.56 1007.76 1008.08 1008.36 1008.56 1008.76 1009.00 1009.24 1009.48 1009.68 1009.84 1010.04 1010.28 1010.52 1010.76 1011.00 1011.20 1011.40 1011.68 1011.96 1012.16 1012.36 1012.44 1012.56 1012.76 1013.00 1013.20 1013.40 1013.64 1013.92 1014.12 1014.32 1014.44 1014.56 1014.68 1014.80 1014.96 1015.12 1015.28 1015.48 1015.64 1015.84 1016.04 1016.36 1016.72 1017.04 1017.32 1017.56 1017.80 1018.00 1018.12 1018.40 1018.60 1018.84 1018.92 1019.00 1019.04 1019.04 1019.08
1004.88 1005.08 1005.40 1005.72 1006.00 1006.28 1006.56 1006.72 1006.96 1007.16 1007.40 1007.64 1007.92 1008.12 1008.36 1008.64 1009.00 1009.28 1009.52 1009.76 1009.92 1010.12 1010.32 1010.56 1010.84 1011.08 1011.28 1011.48 1011.68 1011.92 1012.20 1012.44 1012.56 1012.68 1012.80 1013.00 1013.24 1013.44 1013.64 1013.84 1014.08 1014.28 1014.44 1014.52 1014.64 1014.76 1014.84 1015.00 1015.16 1015.36 1015.56 1015.72 1015.88 1016.16 1016.48 1016.80 1017.12 1017.40 1017.68 1017.84 1018.04 1018.28 1018.56 1018.80 1018.88 1019.00 1019.08 1019.16 1019.28
Wind_Speed
12 11 10 10 10 9 9 8 8 8 8 9 9 9 9 9 9 9 8 8 8 8 8 8 8 8 8 10 12 12 12 11 11 11 11 11 11 11 10 9 9 9 9 9 9 8 8 8 7 5 5 5 5 5 5 4 5 5 5 4 4 4 5 6 5 5 5 5 4
14 13 12 11 10 9 9 8 8 8 8 8 9 9 10 9 10 10 9 10 9 9 8 8 8 9 10 11 12 13 13 12 12 12 12 12 12 12 11 10 10 10 10 10 10 9 8 8 7 6 5 5 5 5 5 4 5 6 6 6 4 4 4 5 5 6 5 5 4
14 14 13 12 12 11 10 10 9 10 10 10 9 9 9 9 9 9 10 10 10 9 8 8 8 10 11 12 12 12 13 13 13 13 13 13 13 12 11 11 11 11 11 11 11 10 9 9 8 7 6 5 6 6 5 4 5 6 6 7 5 4 4 5 5 5 5 4 5
15 15 14 14 15 14 13 11 12 12 12 11 10 10 10 9 9 9 9 10 10 10 9 9 10 11 12 12 12 13 13 13 13 14 13 12 13 12 12 12 12 12 12 11 11 11 10 10 8 6 6 7 7 7 6 5 6 6 6 6 5 5 5 5 4 4 4 4 5
16 16 15 15 16 16 15 13 13 13 12 11 10 10 10 9 9 9 9 9 10 11 11 11 11 11 11 12 13 13 13 13 13 13 12 12 13 13 13 13 14 13 12 12 12 11 11 10 7 6 6 7 7 6 7 7 7 6 5 4 5 5 5 5 4 4 4 4 4
17 16 16 15 16 16 14 13 14 14 12 11 11 11 11 10 10 10 10 11 12 12 12 11 11 11 11 12 12 13 13 13 12 12 12 13 12 12 13 14 14 13 12 11 12 12 11 11 7 6 5 6 6 6 7 8 8 7 6 5 4 4 5 5 4 4 4 4 5
18 17 17 17 17 16 15 14 14 13 12 12 13 14 14 13 13 13 14 13 12 11 11 10 11 11 11 12 12 12 12 12 11 11 12 12 12 12 13 13 13 12 12 11 11 11 11 10 7 6 6 6 5 6 7 8 8 7 7 6 5 4 5 6 5 5 5 6 7
18 18 18 18 18 18 17 17 15 13 12 12 14 16 17 16 16 16 15 13 12 11 11 10 12 12 13 13 13 13 13 13 12 12 12 11 12 12 13 12 12 12 12 12 11 11 11 9 7 6 6 6 6 6 8 9 9 9 8 7 6 5 5 5 5 5 6 8 8
18 18 18 18 18 18 18 18 17 15 14 14 15 16 17 17 17 16 15 13 12 12 12 11 13 13 13 13 14 14 13 13 14 13 12 12 13 13 13 12 12 12 12 11 12 12 12 9 8 7 7 6 7 7 9 10 11 10 9 7 6 6 5 5 6 7 7 8 8
19 19 19 18 18 19 19 18 17 17 16 16 16 16 16 15 15 15 14 12 11 11 12 13 13 13 13 14 14 14 14 13 14 14 14 13 14 15 14 13 13 13 12 12 11 12 12 10 9 8 8 8 9 10 10 11 12 11 9 6 7 7 7 6 7 8 8 7 8
21 20 19 18 19 19 18 18 17 16 16 16 16 15 15 14 14 14 13 11 11 12 13 14 14 14 14 14 14 14 14 14 14 15 15 15 15 16 16 15 15 15 14 13 12 11 11 10 10 10 10 9 10 10 11 11 12 12 10 7 8 9 9 8 8 8 7 7 7
22 21 20 19 19 18 18 18 16 16 16 16 16 15 15 14 14 13 12 12 12 13 14 14 15 15 15 14 15 15 15 15 15 15 16 16 16 16 16 15 15 15 15 14 13 11 11 11 12 12 12 11 10 10 11 13 13 12 11 9 10 10 10 9 8 7 6 6 7
22 21 20 19 19 18 18 18 16 16 16 16 16 16 15 14 13 13 13 13 14 13 13 13 14 15 15 15 15 15 14 15 15 15 15 16 16 16 16 15 15 15 15 14 13 12 12 13 13 14 14 13 10 10 11 14 14 13 12 11 11 11 10 10 9 7 6 6 7
22 21 20 19 18 18 18 18 16 16 16 17 16 15 15 14 13 13 13 14 14 13 13 12 13 13 14 15 15 15 14 14 15 15 15 15 15 15 16 15 16 16 15 14 14 14 14 14 14 14 14 14 12 11 11 13 13 13 13 12 12 12 11 10 9 7 7 7 7
22 21 20 18 18 17 17 17 16 15 16 17 16 15 14 13 13 12 13 14 14 13 12 12 12 12 13 14 14 14 14 14 14 15 15 15 15 16 16 16 16 16 15 14 13 14 14 14 14 13 13 13 12 11 11 12 12 12 12 12 12 12 11 9 9 8 8 8 8
21 21 20 18 17 17 16 17 15 15 15 16 16 15 14 13 13 12 13 13 13 12 11 12 11 11 12 12 13 13 13 13 14 14 15 15 16 16 16 16 16 16 15 14 13 13 13 13 12 12 12 12 12 12 11 12 11 11 11 11 12 11 10 9 9 9 9 9 9
21 20 19 18 18 17 17 16 15 15 15 16 16 15 15 14 13 12 13 13 12 11 11 12 11 11 11 11 11 12 12 13 14 14 15 15 15 16 16 16 15 15 15 14 14 13 13 11 10 10 11 11 11 11 12 12 11 11 11 11 11 10 10 9 9 9 9 9 9
20 20 19 18 18 18 18 18 17 17 17 17 16 15 15 14 13 13 13 13 13 13 13 13 11 11 11 11 11 11 12 13 14 14 14 14 15 15 15 15 14 14 14 14 13 13 13 11 10 10 10 10 10 11 11 11 11 11 11 10 10 10 10 9 9 9 9 9 9
21 20 19 19 18 18 18 19 19 19 18 17 16 15 15 15 14 13 13 13 13 14 14 13 12 11 11 12 12 11 12 13 14 14 14 13 13 13 13 13 12 12 13 13 13 12 12 11 10 10 10 10 10 10 10 10 10 10 10 10 9 9 9 9 9 9 8 8 7
21 19 17 16 16 17 18 20 20 19 17 15 15 15 15 15 14 14 14 14 14 13 13 13 12 11 11 12 12 12 11 11 12 12 12 12 12 12 12 11 11 11 11 11 11 11 11 11 11 11 11 11 10 10 10 10 9 9 9 9 8 8 8 9 9 8 8 7 6
19 16 13 12 13 15 18 20 19 17 16 15 15 15 15 14 14 14 14 14 13 13 12 12 12 11 11 11 12 11 10 9 10 10 11 11 11 11 11 10 10 10 10 10 10 11 11 11 11 11 11 11 11 11 11 10 10 9 9 8 8 8 8 8 8 7 7 6 7
16 13 11 10 13 16 18 17 16 15 15 14 14 14 15 14 14 13 13 13 12 12 12 11 11 11 11 10 10 9 9 8 8 9 9 9 10 10 10 9 9 10 10 10 10 11 11 11 11 11 11 10 11 11 11 11 10 10 9 9 8 8 8 8 7 7 7 7 8
15 13 12 12 16 19 20 16 15 15 14 14 13 13 14 14 13 12 11 11 11 11 10 9 10 10 10 8 8 8 8 7 8 8 8 8 9 9 9 9 9 10 11 10 11 11 11 10 10 10 10 10 11 11 11 11 10 10 10 9 9 9 8 8 7 7 8 8 9
16 15 14 14 19 21 20 16 15 15 14 13 13 13 13 13 12 11 10 10 11 11 10 9 8 8 8 6 6 7 7 7 7 7 8 8 9 9 9 9 9 10 10 9 9 10 10 9 9 9 10 11 12 12 11 11 10 10 9 9 8 8 8 8 8 9 9 10 10
15 14 14 15 18 19 18 15 15 15 14 13 13 12 12 12 10 9 9 9 9 9 8 7 7 6 5 4 4 5 5 6 6 7 8 10 10 10 10 9 10 10 9 8 10 11 12 11 10 10 11 12 12 11 11 11 11 10 9 8 8 8 8 8 9 10 10 11 10
12 11 11 12 13 14 14 14 15 14 14 13 12 12 12 11 10 9 8 8 8 7 6 6 5 4 3 2 3 4 5 6 8 10 11 12 12 12 12 11 10 9 8 9 12 15 16 16 14 13 12 12 12 11 10 10 9 8 8 7 8 8 8 9 10 10 10 10 11
10 9 7 6 6 7 10 12 13 13 13 13 13 13 13 12 10 9 9 7 6 5 5 5 4 3 2 2 4 6 8 9 11 13 14 15 15 15 15 13 11 9 9 10 14 17 18 18 17 15 13 12 11 10 9 8 8 7 7 7 8 8 9 9 10 10 10 10 10
11 9 6 4 3 4 6 10 12 13 13 13 14 14 13 12 11 10 9 7 5 5 4 5 4 3 3 4 7 10 13 14 15 16 16 16 17 17 16 13 11 10 10 12 16 17 18 19 18 17 15 12 10 9 9 8 8 7 7 7 8 8 9 9 9 9 9 10 10
13 10 8 5 5 5 7 10 12 13 13 13 13 13 13 13 12 11 9 7 5 5 5 5 4 4 5 8 11 14 17 18 18 17 16 16 16 16 15 13 11 10 11 15 17 19 19 19 19 18 16 13 10 8 8 8 8 8 7 7 7 8 8 8 8 8 8 9 10
14 12 10 9 8 7 7 8 11 12 12 11 12 12 13 13 13 12 11 9 8 7 6 6 7 9 12 15 16 17 18 19 18 17 16 15 15 14 14 13 11 11 13 17 19 20 19 19 19 18 17 15 11 9 8 8 8 8 8 7 8 8 8 9 9 9 9 9 10
15 13 12 12 11 9 7 6 7 7 8 8 11 12 13 14 14 14 13 12 10 8 7 9 13 16 19 19 18 18 18 17 16 15 15 14 14 14 13 13 13 12 13 17 19 19 19 19 19 18 18 17 12 9 8 8 8 8 8 8 8 9 9 9 10 10 10 10 10
16 15 15 15 14 11 9 7 6 4 4 5 8 11 13 14 14 14 14 13 12 11 12 15 19 21 21 19 17 16 16 15 14 13 13 13 13 13 13 12 12 12 13 17 18 19 19 19 19 18 18 18 13 10 9 8 8 8 8 8 9 9 10 9 10 11 11 11 11
16 17 17 17 15 13 10 9 7 5 3 3 5 9 11 12 12 12 13 13 13 15 17 20 21 21 19 16 15 14 13 13 13 12 12 12 12 12 12 11 11 11 13 17 18 18 18 18 18 18 18 18 13 11 9 8 7 7 7 8 9 10 10 11 11 11 12 12 11
16 16 17 16 14 12 10 9 7 5 4 3 4 6 8 9 8 9 10 11 13 15 18 19 19 17 15 14 12 12 12 11 11 11 11 11 11 11 11 10 9 9 12 17 18 18 18 18 18 18 17 17 12 10 9 8 7 7 7 8 8 9 10 11 12 12 12 12 10
15 16 16 15 12 10 9 8 7 5 4 3 3 4 5 5 6 7 9 11 12 13 14 14 13 12 11 9 10 11 11 10 10 10 10 10 10 11 11 11 9 10 13 17 17 18 17 17 17 17 16 14 10 9 8 8 8 8 8 9 9 10 11 11 11 12 11 11 10
15 16 15 14 11 9 8 7 6 4 3 3 4 4 4 5 8 11 13 14 13 12 12 11 10 10 10 9 8 8 9 10 9 9 9 9 10 11 11 10 9 10 13 15 16 17 17 17 17 16 15 12 9 8 7 7 7 8 9 9 10 10 11 11 10 10 9 8 8
15 16 16 14 12 10 9 7 5 5 5 7 8 9 10 12 14 16 16 14 13 12 11 10 9 10 10 10 9 8 7 8 8 9 9 9 10 11 10 10 9 9 12 14 15 15 16 16 16 16 14 10 8 7 7 6 6 7 8 9 9 9 9 8 7 7 6 5 5
15 16 15 13 11 10 9 7 7 8 10 11 12 14 15 15 15 14 13 11 11 11 10 9 9 9 10 10 9 8 8 8 9 9 10 10 10 10 10 9 8 8 9 13 14 15 15 16 16 16 14 10 8 7 7 6 6 7 7 7 7 6 5 3 3 2 2 3 4
14 14 13 12 11 10 9 9 11 12 14 15 15 14 14 11 10 9 9 9 9 9 9 9 9 8 8 8 8 8 7 8 9 10 10 10 10 10 10 10 8 7 8 11 14 15 15 16 16 16 15 10 9 8 7 7 7 7 6 6 5 4 3 2 2 3 3 5 8
12 12 12 11 11 11 11 13 14 14 14 14 13 12 11 8 7 7 7 7 7 8 8 8 8 8 8 8 8 8 7 7 8 9 10 10 10 10 10 9 8 7 8 10 13 14 15 16 16 16 15 10 9 8 7 7 7 7 6 5 5 4 3 3 3 4 4 6 9
8 9 11 11 12 13 14 15 15 14 12 11 11 9 8 7 6 6 6 6 6 7 7 7 8 9 8 8 8 9 8 7 7 8 8 9 9 9 9 9 8 8 7 8 11 13 15 15 16 16 14 10 8 7 7 7 7 7 7 6 5 4 4 4 4 4 5 6 7
Wind_Direction
192 190 188 188 190 190 191 193 190 188 188 189 190 189 188 189 190 192 192 193 195 197 199 199 198 197 194 188 187 191 194 192 186 185 186 187 187 184 180 175 174 171 167 164 163 164 165 164 161 162 164 164 161 160 157 152 147 145 142 140 141 141 142 147 154 158 159 159 156
194 191 189 188 189 191 192 193 191 190 190 192 192 191 190 190 192 193 194 195 197 198 199 200 198 197 194 191 189 190 192 191 186 185 186 189 188 183 178 174 174 172 169 165 165 166 168 167 166 167 168 167 161 160 160 157 150 147 146 147 148 148 150 156 165 166 163 160 153
195 192 190 189 190 191 192 193 193 192 192 194 193 193 192 193 194 195 196 197 198 197 198 200 199 197 195 192 191 191 191 190 187 187 188 191 188 182 177 175 175 174 172 170 170 171 171 170 170 170 170 169 166 165 164 162 156 152 153 157 155 155 160 170 173 170 163 158 154
197 193 192 192 192 192 193 194 193 192 192 194 194 194 195 196 197 198 198 197 197 197 199 200 199 198 196 194 192 192 192 191 189 189 190 190 186 182 178 177 177 177 176 174 174 174 173 172 172 171 170 169 169 169 169 167 165 164 163 164 160 162 168 175 174 170 165 163 162
199 196 194 194 194 194 194 195 193 192 192 193 194 195 197 198 199 199 199 198 198 199 199 199 198 197 196 195 193 193 193 191 190 190 190 190 187 183 180 180 180 180 178 177 176 174 172 171 172 171 171 171 173 175 173 167 169 170 171 169 167 167 169 170 169 168 168 169 174
201 199 197 196 196 196 197 196 194 192 192 193 194 196 198 199 199 199 199 200 200 199 197 195 196 196 195 193 193 194 193 191 191 191 191 190 188 185 183 184 183 181 179 178 176 174 172 171 171 170 170 171 177 177 173 167 171 174 176 177 175 169 163 164 167 170 174 177 181
203 201 199 198 197 197 198 198 195 193 193 194 196 198 199 199 199 199 200 201 199 196 194 193 196 195 193 191 193 194 193 191 190 190 190 190 189 187 185 186 184 182 181 179 177 175 174 172 170 169 171 173 179 179 177 174 176 178 181 182 178 168 162 166 168 173 178 182 183
205 203 201 199 198 198 199 199 196 194 194 197 199 200 201 200 199 199 199 199 198 196 193 194 197 196 193 189 191 192 192 191 189 189 190 189 188 186 185 185 185 185 184 182 179 178 176 174 172 172 174 177 181 183 183 182 181 183 184 183 179 172 169 171 172 177 182 183 183
206 205 202 200 199 199 199 199 196 195 196 200 202 202 201 201 200 198 198 199 198 196 193 195 197 195 192 189 190 191 191 191 190 190 189 189 187 186 185 184 187 189 188 185 182 180 179 178 178 178 177 179 182 185 186 185 184 184 184 181 178 176 175 174 175 179 182 183 183
206 205 203 201 200 200 200 200 198 198 198 202 203 203 202 201 200 199 198 198 196 195 194 195 194 193 191 189 189 190 191 193 192 191 190 189 188 187 187 187 189 190 190 187 184 183 182 183 184 183 182 181 182 183 184 186 185 184 183 182 179 178 179 179 178 179 181 182 183
206 205 203 201 200 199 199 200 200 200 200 203 204 204 203 202 202 200 198 196 194 195 196 194 191 190 190 190 190 191 192 194 194 192 190 190 191 191 191 191 190 190 189 187 185 185 186 188 187 186 185 184 181 180 182 185 185 184 183 183 180 179 180 182 181 180 180 180 183
207 205 203 201 199 197 197 199 201 201 202 204 205 204 204 204 203 200 198 195 195 196 196 193 190 190 190 191 192 193 194 196 195 193 191 191 192 194 195 193 191 190 189 186 186 188 191 193 190 188 187 187 184 181 180 184 185 184 183 182 181 181 182 183 182 180 178 176 181
207 206 204 202 198 196 196 199 201 202 202 203 204 204 204 204 202 200 197 196 197 197 196 193 191 191 192 193 193 194 195 195 195 194 193 192 192 195 196 195 193 191 190 188 188 190 193 195 192 190 188 187 187 184 181 182 184 184 182 181 182 183 184 183 181 177 174 173 183
207 207 205 202 198 196 196 199 201 202 202 203 204 204 203 203 201 199 199 199 199 198 196 194 193 194 195 195 194 194 194 194 194 194 194 193 192 194 196 197 194 193 192 191 190 192 195 196 194 192 190 187 188 185 182 182 184 183 181 181 184 185 185 182 178 174 173 178 188
208 207 205 202 198 196 197 199 202 203 203 203 203 203 202 202 199 199 200 202 201 198 196 194 196 197 197 196 195 194 193 193 193 194 195 194 193 194 196 197 195 194 193 193 192 194 196 196 194 192 190 188 186 184 182 184 185 184 183 183 185 185 184 180 176 175 178 185 192
208 208 206 202 198 197 198 200 202 203 203 203 202 202 201 201 198 197 199 201 200 198 196 196 196 197 198 197 195 192 191 192 193 194 195 196 194 195 196 198 196 195 194 193 193 195 197 196 193 190 189 187 185 183 182 184 186 186 185 185 186 185 183 179 178 180 185 189 194
209 208 206 202 200 199 200 201 203 204 204 203 201 200 200 201 197 196 196 198 197 196 196 197 197 197 196 196 193 191 190 192 193 195 196 197 196 195 196 198 197 196 195 194 193 195 196 195 191 187 186 185 184 183 182 183 185 186 186 185 185 184 182 180 181 184 188 191 195
209 209 207 204 201 200 201 203 205 205 204 201 199 199 199 199 197 195 194 195 194 194 195 197 197 197 195 194 192 190 190 192 194 195 196 197 196 196 196 198 199 198 196 195 194 194 193 192 188 185 183 183 183 182 183 184 185 185 184 183 183 182 181 181 182 185 188 191 194
209 209 208 206 203 202 203 205 206 206 204 200 197 197 197 198 196 193 192 193 193 193 193 194 196 196 195 192 190 190 191 193 194 196 197 197 197 197 197 200 201 200 199 197 195 193 191 188 185 183 182 182 181 181 181 183 184 184 182 180 180 180 180 181 184 186 187 188 190
206 207 208 208 206 207 209 210 208 206 203 199 196 195 195 196 194 192 191 192 192 192 191 192 193 193 192 190 189 190 193 195 196 197 199 200 200 199 199 201 202 202 202 200 196 192 189 187 184 182 182 180 179 178 179 181 182 181 180 178 178 180 182 184 184 184 183 183 189
200 202 208 218 221 222 220 216 210 205 202 199 195 193 192 192 192 191 190 190 188 189 190 191 190 188 186 185 187 191 196 199 200 201 203 205 205 204 203 203 203 203 203 201 196 192 189 187 185 183 181 179 178 177 177 179 180 179 178 177 179 182 185 185 182 180 181 186 199
191 189 195 215 236 240 235 224 212 205 201 199 195 192 190 190 191 190 188 185 183 185 188 189 186 182 180 180 188 197 204 207 203 203 205 208 208 207 204 203 203 204 203 200 195 191 188 186 184 181 179 177 178 178 178 178 178 178 177 178 181 185 185 182 179 181 189 201 212
181 177 180 196 224 236 238 228 212 203 200 198 194 191 190 189 189 186 183 180 181 184 187 185 180 175 174 180 197 209 213 209 203 202 204 207 208 206 205 204 205 206 205 201 194 190 186 183 180 178 177 177 180 181 181 180 180 180 180 182 185 186 185 181 182 190 201 212 219
174 174 180 193 212 223 228 222 208 201 197 195 192 190 188 188 186 182 179 179 181 183 184 182 174 170 172 186 206 215 214 208 202 200 201 204 207 207 206 207 208 208 206 202 192 185 180 176 176 178 180 183 185 186 185 185 187 186 185 185 187 187 188 187 191 199 208 217 223
168 172 182 196 210 217 219 212 202 197 194 191 188 186 185 184 181 178 178 181 182 184 183 178 170 168 175 194 208 214 213 208 204 203 204 206 208 207 207 208 210 209 206 198 185 177 174 172 177 182 186 189 190 190 189 190 191 189 186 184 185 188 191 196 201 207 213 220 225
163 171 184 199 210 214 212 203 197 193 190 186 184 183 182 180 178 179 181 185 188 192 196 194 187 185 185 184 190 199 206 209 210 210 210 209 209 208 208 209 209 208 203 194 180 175 173 174 178 183 188 192 192 191 191 191 189 185 181 179 183 188 195 203 209 213 217 223 228
163 171 182 193 208 211 205 196 190 187 185 183 183 182 182 180 181 183 186 189 195 203 211 215 213 207 187 168 182 194 202 208 211 212 211 209 208 207 207 208 207 205 197 187 177 175 175 176 179 183 186 191 192 191 189 188 183 179 177 180 185 192 200 207 212 216 221 226 231
166 170 173 170 203 217 206 190 184 182 182 182 183 182 181 180 182 184 187 193 201 205 204 201 201 197 189 187 197 202 205 208 210 210 210 208 207 206 205 206 204 199 189 178 173 173 175 177 180 182 184 186 189 188 184 181 179 179 182 186 192 198 204 211 216 219 224 229 232
163 164 166 171 197 207 199 184 180 180 180 180 180 180 179 179 182 184 187 193 192 188 184 184 188 192 197 202 205 207 208 209 209 209 208 207 206 204 203 203 200 191 179 169 170 173 176 178 179 180 181 180 184 186 185 184 184 185 188 192 197 201 207 213 218 222 226 230 232
154 156 163 171 178 180 177 172 173 174 175 176 178 178 178 180 182 184 187 190 192 190 187 185 191 199 204 207 208 208 208 208 207 206 204 204 203 203 202 200 196 186 174 168 170 173 176 177 177 178 178 177 180 184 187 188 187 189 192 196 200 203 208 213 219 223 226 228 230
150 157 165 169 170 169 165 156 157 161 166 172 177 179 181 183 184 184 184 186 193 200 203 203 207 209 211 211 209 208 207 206 204 202 200 199 200 200 200 199 195 184 173 168 171 173 175 176 177 177 176 176 180 184 189 189 189 190 193 197 200 203 208 213 218 222 224 225 225
149 157 165 169 170 169 163 149 140 137 145 165 177 181 184 186 186 184 182 181 188 201 212 215 214 214 214 212 209 206 204 203 201 199 197 196 197 197 197 196 193 183 171 168 171 173 174 176 177 177 177 177 180 185 188 188 189 191 193 197 200 204 208 213 219 221 222 222 220
150 156 162 168 169 165 158 146 138 132 135 160 179 184 185 186 186 185 184 183 189 200 209 212 211 211 210 206 203 201 200 200 199 197 195 193 194 193 193 193 191 179 168 167 171 173 174 176 177 178 178 179 182 185 188 187 188 191 194 199 203 206 210 215 219 222 222 221 218
153 157 162 165 162 157 149 140 133 131 135 158 178 182 182 181 184 188 192 194 197 200 203 205 205 204 202 198 195 195 195 196 195 193 191 188 188 188 188 190 189 175 166 167 171 173 175 176 177 178 180 181 183 186 188 188 190 194 199 204 208 211 214 218 222 223 223 220 216
155 157 159 159 156 152 146 137 130 128 134 160 180 183 181 182 196 208 213 212 206 202 199 199 197 196 194 191 190 190 190 190 190 188 184 180 180 182 185 189 184 171 164 169 172 174 175 177 178 179 180 182 186 188 189 190 195 200 205 209 213 216 219 222 225 225 223 217 210
153 155 155 154 155 156 156 148 141 146 172 213 217 215 213 216 219 221 220 216 207 200 196 193 189 187 186 186 186 186 185 184 181 178 175 173 174 178 182 187 180 169 165 171 174 176 177 178 179 180 180 182 187 190 191 194 201 208 212 215 218 219 220 222 223 221 216 209 199
150 151 152 153 158 164 169 168 173 192 215 228 231 231 227 223 220 218 214 207 200 195 192 187 184 183 183 183 182 180 177 174 171 169 169 170 172 175 178 182 177 169 167 173 176 178 179 181 181 181 181 183 188 191 193 198 207 214 217 220 221 219 217 217 215 210 202 190 179
148 150 153 156 163 171 178 186 197 210 219 225 228 226 222 216 214 211 206 196 192 189 187 183 182 182 181 177 174 171 167 165 164 165 166 170 172 173 174 178 177 173 172 176 179 181 183 184 184 183 183 185 189 190 193 200 209 214 217 218 216 210 203 196 187 170 145 117 102
150 153 157 162 170 181 193 203 208 211 215 218 220 217 213 209 208 203 196 188 185 182 180 180 180 178 173 167 163 160 159 160 162 164 166 171 173 173 172 176 180 179 177 179 181 183 186 188 188 186 185 185 187 189 192 199 206 210 211 209 201 187 161 107 95 89 83 77 79
152 159 165 173 182 191 200 207 210 211 211 211 210 209 206 204 199 190 181 178 176 174 173 174 173 169 164 160 157 156 157 160 163 165 167 171 172 171 171 176 181 182 181 181 183 186 188 190 191 189 188 187 187 188 191 197 202 204 203 197 185 166 135 96 88 84 81 78 81
156 162 168 176 185 191 196 200 203 205 204 202 200 197 192 184 174 166 164 166 167 166 166 167 165 162 160 160 159 159 159 162 167 168 168 168 169 170 173 177 182 184 184 184 186 188 191 193 194 193 191 189 188 188 191 195 199 200 197 188 172 154 134 112 96 86 81 80 85